Location: Luxembourg
(49.6117°N, 6.1300°E)
Time: 19:28:18
(UTC+02:00)

NOAA 15 - Visible Passes

Search period start: 20 October 2019 00:00
Search period end: 29 October 2019 23:00
Orbit: 798 x 812 km, 98.7° (Epoch: 20 October)

Date Brightness Start Highest point End Pass type
(mag) Time Alt. Az. Time Alt. Az. Time Alt. Az.
20 Oct 5.3 20:18:26 10° S 20:23:39 57° W 20:28:55 10° NNW visible
21 Oct 4.6 19:53:12 10° SSE 19:58:32 89° W 20:03:54 10° NNW visible
21 Oct 7.5 21:36:12 10° WSW 21:39:04 15° W 21:41:58 10° NW visible
22 Oct 4.7 19:28:18 10° SSE 19:33:30 60° ENE 19:38:45 10° N visible
22 Oct 6.9 21:09:29 10° SW 21:13:40 23° W 21:17:53 10° NW visible
23 Oct 5.1 19:03:40 10° SE 19:08:33 39° ENE 19:13:28 10° N visible
23 Oct 6.1 20:43:29 10° SSW 20:48:22 36° W 20:53:16 10° NNW visible
24 Oct 5.2 20:17:55 10° S 20:23:09 57° WSW 20:28:25 10° NNW visible
25 Oct 4.6 19:52:42 10° SSE 19:58:02 89° WSW 20:03:24 10° NNW visible
25 Oct 7.5 21:35:38 10° WSW 21:38:33 15° W 21:41:30 10° NW visible
26 Oct 4.7 19:27:47 10° SSE 19:33:00 59° ENE 19:38:14 10° N visible
26 Oct 6.9 21:08:57 10° SW 21:13:09 23° W 21:17:23 10° NW visible
27 Oct 7.7 06:39:40 10° NE 06:42:46 16° E 06:45:51 10° ESE visible
27 Oct 5.1 18:03:12 10° SE 18:08:04 38° ENE 18:12:57 10° N visible
27 Oct 6.1 19:42:57 10° SSW 19:47:51 37° W 19:52:46 10° NNW visible
28 Oct 5.2 19:17:24 10° S 19:22:38 58° WSW 19:27:54 10° NNW visible
29 Oct 4.6 18:52:12 10° SSE 18:57:31 90° ENE 19:02:53 10° NNW visible
29 Oct 7.4 20:35:04 10° WSW 20:38:02 15° W 20:41:01 10° NW visible
